• In France
  • List of Countries
  • For 7 days
  • Water Temperature
  • Satellite Maps
  • Weather Map
  • Weather Widgets
  • user-avatar
    Login

    Hourly Weather Pacht

    Today, 22 October, Monday

    Time Temperature Precipitation Wind Pressure Humidity
    00:00 +7°C° 0 mm 1 mps 758 mmHg 79%
    01:00 +6°C° 0 mm 1 mps 758 mmHg 80%
    02:00 +5°C° 0 mm 2 mps 757 mmHg 81%
    03:00 +5°C° 0 mm 2 mps 757 mmHg 82%
    04:00 +5°C° 0 mm 2 mps 757 mmHg 83%
    05:00 +5°C° 0 mm 2 mps 757 mmHg 84%
    06:00 +5°C° 0 mm 2 mps 757 mmHg 84%
    07:00 +4°C° 0 mm 2 mps 757 mmHg 85%
    08:00 +5°C° 0 mm 3 mps 757 mmHg 78%
    09:00 +8°C° 0 mm 3 mps 756 mmHg 71%
    10:00 +10°C° 0 mm 3 mps 756 mmHg 64%
    11:00 +11°C° 0 mm 4 mps 756 mmHg 61%
    12:00 +12°C° 0 mm 4 mps 755 mmHg 57%
    13:00 +13°C° 0 mm 4 mps 755 mmHg 54%
    14:00 +13°C° 0 mm 4 mps 755 mmHg 57%
    15:00 +12°C° 0 mm 4 mps 754 mmHg 60%
    16:00 +12°C° 0 mm 4 mps 754 mmHg 64%
    17:00 +11°C° 0.3 mm 4 mps 754 mmHg 70%
    18:00 +11°C° 0.3 mm 4 mps 755 mmHg 76%
    19:00 +9°C° 0.3 mm 5 mps 755 mmHg 82%
    20:00 +8°C° 0 mm 4 mps 755 mmHg 81%
    21:00 +8°C° 0 mm 4 mps 755 mmHg 80%
    22:00 +7°C° 0 mm 4 mps 756 mmHg 79%
    23:00 +6°C° 0 mm 4 mps 755 mmHg 81%

    Tomorrow, 23 October, Tuesday

    Time Temperature Precipitation Wind Pressure Humidity
    00:00 +5°C° 0 mm 4 mps 755 mmHg 84%
    01:00 +5°C° 0 mm 4 mps 755 mmHg 86%
    02:00 +4°C° 0 mm 4 mps 755 mmHg 86%
    03:00 +4°C° 0 mm 4 mps 754 mmHg 85%
    04:00 +4°C° 0 mm 4 mps 754 mmHg 84%
    05:00 +3°C° 0 mm 5 mps 753 mmHg 82%
    06:00 +5°C° 0 mm 5 mps 753 mmHg 79%
    07:00 +4°C° 0 mm 6 mps 752 mmHg 77%
    08:00 +4°C° 0.5 mm 7 mps 751 mmHg 76%
    09:00 +5°C° 0.5 mm 8 mps 750 mmHg 75%
    10:00 +5°C° 0.5 mm 9 mps 749 mmHg 74%
    11:00 +5°C° 1 mm 9 mps 748 mmHg 75%
    12:00 +5°C° 1 mm 10 mps 746 mmHg 77%
    13:00 +4°C° 1 mm 11 mps 745 mmHg 78%
    14:00 +6°C° 0.6 mm 11 mps 744 mmHg 78%
    15:00 +6°C° 0.6 mm 11 mps 743 mmHg 79%
    16:00 +7°C° 0.6 mm 11 mps 742 mmHg 79%
    17:00 +7°C° 0.9 mm 11 mps 741 mmHg 81%
    18:00 +8°C° 0.9 mm 11 mps 740 mmHg 83%
    19:00 +8°C° 0.9 mm 11 mps 740 mmHg 85%
    20:00 +8°C° 1.4 mm 11 mps 739 mmHg 84%
    21:00 +9°C° 1.4 mm 11 mps 739 mmHg 84%
    22:00 +9°C° 1.4 mm 11 mps 738 mmHg 84%
    23:00 +9°C° 1.3 mm 10 mps 737 mmHg 83%

    Day after tomorrow, 24 October, Wednesday

    Time Temperature Precipitation Wind Pressure Humidity
    00:00 +9°C° 1.3 mm 10 mps 737 mmHg 82%
    01:00 +8°C° 1.3 mm 10 mps 736 mmHg 81%
    02:00 +8°C° 0.6 mm 10 mps 736 mmHg 76%
    03:00 +7°C° 0.6 mm 11 mps 736 mmHg 72%
    04:00 +5°C° 0.6 mm 12 mps 736 mmHg 67%
    05:00 +4°C° 0.1 mm 11 mps 738 mmHg 65%
    06:00 +5°C° 0.1 mm 10 mps 739 mmHg 62%
    07:00 +3°C° 0.1 mm 9 mps 740 mmHg 59%
    08:00 +5°C° 0 mm 10 mps 740 mmHg 54%
    09:00 +4°C° 0 mm 11 mps 741 mmHg 50%
    10:00 +4°C° 0 mm 12 mps 742 mmHg 45%
    11:00 +6°C° 0 mm 11 mps 742 mmHg 44%
    12:00 +6°C° 0 mm 11 mps 743 mmHg 43%
    13:00 +7°C° 0 mm 11 mps 743 mmHg 43%
    14:00 +6°C° 0 mm 10 mps 744 mmHg 43%
    15:00 +6°C° 0 mm 9 mps 744 mmHg 44%
    16:00 +5°C° 0 mm 8 mps 745 mmHg 45%
    17:00 +5°C° 0 mm 7 mps 745 mmHg 47%
    18:00 +4°C° 0 mm 7 mps 746 mmHg 50%
    19:00 +4°C° 0 mm 6 mps 746 mmHg 52%
    20:00 +3°C° 0 mm 6 mps 747 mmHg 56%
    21:00 +3°C° 0 mm 6 mps 747 mmHg 60%
    22:00 +3°C° 0 mm 5 mps 747 mmHg 64%
    23:00 +3°C° 0 mm 5 mps 747 mmHg 67%

    25 October, Thursday

    Time Temperature Precipitation Wind Pressure Humidity
    00:00 +3°C° 0 mm 5 mps 747 mmHg 70%
    01:00 +3°C° 0 mm 4 mps 747 mmHg 73%
    02:00 +3°C° 0 mm 5 mps 746 mmHg 74%
    03:00 +3°C° 0 mm 5 mps 745 mmHg 75%
    04:00 +5°C° 0 mm 5 mps 745 mmHg 75%
    05:00 +5°C° 0.7 mm 6 mps 744 mmHg 80%
    06:00 +6°C° 0.7 mm 7 mps 743 mmHg 85%
    07:00 +7°C° 0.7 mm 8 mps 742 mmHg 90%
    08:00 +7°C° 0.1 mm 8 mps 742 mmHg 87%
    09:00 +8°C° 0.1 mm 9 mps 741 mmHg 83%
    10:00 +8°C° 0.1 mm 10 mps 741 mmHg 80%
    11:00 +8°C° 0.2 mm 10 mps 741 mmHg 79%
    12:00 +9°C° 0.2 mm 10 mps 741 mmHg 78%
    13:00 +9°C° 0.2 mm 10 mps 741 mmHg 77%
    14:00 +8°C° 0.1 mm 9 mps 742 mmHg 74%
    15:00 +8°C° 0.1 mm 9 mps 742 mmHg 72%
    16:00 +8°C° 0.1 mm 9 mps 743 mmHg 70%
    17:00 +7°C° 0 mm 8 mps 743 mmHg 72%
    18:00 +8°C° 0 mm 7 mps 743 mmHg 75%
    19:00 +7°C° 0 mm 6 mps 744 mmHg 77%
    20:00 +7°C° 0 mm 6 mps 744 mmHg 77%
    21:00 +7°C° 0 mm 6 mps 744 mmHg 78%
    22:00 +7°C° 0 mm 6 mps 745 mmHg 78%
    23:00 +7°C° 0 mm 5 mps 745 mmHg 78%

    26 October, Friday

    Time Temperature Precipitation Wind Pressure Humidity
    00:00 +7°C° 0 mm 5 mps 745 mmHg 79%
    01:00 +6°C° 0 mm 5 mps 745 mmHg 80%
    02:00 +6°C° 0 mm 5 mps 745 mmHg 80%
    03:00 +6°C° 0 mm 4 mps 745 mmHg 81%
    04:00 +6°C° 0 mm 4 mps 745 mmHg 82%
    05:00 +5°C° 0 mm 4 mps 745 mmHg 83%
    06:00 +5°C° 0 mm 4 mps 745 mmHg 85%
    07:00 +5°C° 0 mm 3 mps 745 mmHg 86%
    08:00 +7°C° 0 mm 3 mps 745 mmHg 82%
    09:00 +8°C° 0 mm 3 mps 745 mmHg 77%
    10:00 +9°C° 0 mm 3 mps 745 mmHg 73%
    11:00 +10°C° 0 mm 3 mps 745 mmHg 71%
    12:00 +10°C° 0 mm 3 mps 744 mmHg 69%
    13:00 +11°C° 0 mm 4 mps 744 mmHg 66%
    14:00 +11°C° 0 mm 3 mps 743 mmHg 70%
    15:00 +11°C° 0 mm 3 mps 743 mmHg 73%
    16:00 +11°C° 0 mm 3 mps 742 mmHg 77%
    17:00 +10°C° 0 mm 3 mps 742 mmHg 77%
    18:00 +10°C° 0 mm 4 mps 742 mmHg 77%
    19:00 +10°C° 0 mm 4 mps 741 mmHg 78%
    20:00 +10°C° 0 mm 4 mps 741 mmHg 77%
    21:00 +9°C° 0 mm 5 mps 741 mmHg 77%
    22:00 +9°C° 0 mm 5 mps 741 mmHg 76%
    23:00 +9°C° 0 mm 5 mps 740 mmHg 77%

    27 October, Saturday

    Time Temperature Precipitation Wind Pressure Humidity
    00:00 +10°C° 0 mm 4 mps 740 mmHg 78%
    01:00 +10°C° 0 mm 4 mps 740 mmHg 79%
    02:00 +8°C° 0 mm 4 mps 740 mmHg 81%
    03:00 +9°C° 0 mm 3 mps 739 mmHg 83%
    04:00 +8°C° 0 mm 3 mps 739 mmHg 86%
    05:00 +8°C° 0 mm 2 mps 739 mmHg 87%
    06:00 +8°C° 0 mm 2 mps 739 mmHg 89%
    07:00 +7°C° 0 mm 2 mps 739 mmHg 91%
    08:00 +8°C° 0 mm 2 mps 739 mmHg 85%
    09:00 +10°C° 0 mm 2 mps 739 mmHg 80%
    10:00 +12°C° 0 mm 2 mps 739 mmHg 75%
    11:00 +12°C° 0.1 mm 1 mps 738 mmHg 73%
    12:00 +12°C° 0.1 mm 1 mps 738 mmHg 72%
    13:00 +13°C° 0.1 mm 1 mps 737 mmHg 70%
    14:00 +12°C° 0.3 mm 1 mps 737 mmHg 74%
    15:00 +12°C° 0.3 mm 2 mps 736 mmHg 77%
    16:00 +10°C° 0.3 mm 3 mps 736 mmHg 81%
    17:00 +10°C° 0.9 mm 3 mps 736 mmHg 84%
    18:00 +8°C° 0.9 mm 4 mps 736 mmHg 86%
    19:00 +8°C° 0.9 mm 5 mps 735 mmHg 89%
    20:00 +8°C° 0.5 mm 4 mps 735 mmHg 90%
    21:00 +8°C° 0.5 mm 4 mps 735 mmHg 91%
    22:00 +7°C° 0.5 mm 4 mps 735 mmHg 91%
    23:00 +7°C° 0.6 mm 5 mps 734 mmHg 91%

    28 October, Sunday

    Time Temperature Precipitation Wind Pressure Humidity
    00:00 +7°C° 0.6 mm 5 mps 734 mmHg 91%
    01:00 +7°C° 0.6 mm 5 mps 734 mmHg 90%
    02:00 +7°C° 0.6 mm 5 mps 734 mmHg 90%
    03:00 +6°C° 0.6 mm 5 mps 735 mmHg 89%
    04:00 +5°C° 0.6 mm 6 mps 735 mmHg 89%
    05:00 +6°C° 0.3 mm 5 mps 736 mmHg 88%
    06:00 +6°C° 0.3 mm 5 mps 736 mmHg 88%
    07:00 +5°C° 0.3 mm 5 mps 737 mmHg 87%
    08:00 +6°C° 0.1 mm 5 mps 738 mmHg 85%
    09:00 +6°C° 0.1 mm 5 mps 740 mmHg 82%
    10:00 +6°C° 0.1 mm 5 mps 741 mmHg 79%
    11:00 +7°C° 0 mm 4 mps 741 mmHg 75%
    12:00 +7°C° 0 mm 4 mps 742 mmHg 70%
    13:00 +8°C° 0 mm 4 mps 743 mmHg 65%
    14:00 +9°C° 0 mm 3 mps 743 mmHg 67%
    15:00 +9°C° 0 mm 2 mps 744 mmHg 68%
    16:00 +8°C° 0 mm 2 mps 744 mmHg 70%
    17:00 +9°C° 0 mm 1 mps 745 mmHg 72%
    18:00 +8°C° 0 mm 1 mps 745 mmHg 74%
    19:00 +8°C° 0 mm 1 mps 746 mmHg 77%
    20:00 +7°C° 0 mm 1 mps 746 mmHg 79%
    21:00 +7°C° 0 mm 1 mps 747 mmHg 80%
    22:00 +7°C° 0 mm 1 mps 747 mmHg 82%
    23:00 +6°C° 0 mm 1 mps 747 mmHg 83%
    Show more